This is the latest recevied weather packets stored in our database for station/object AC4AG. If no packets are shown the sender has not sent any weather packets the latest 10 day(s).
| Time | Temp. | Humidity | Pressure | Rain* | Wind** | Luminosity | Snow |
|---|---|---|---|---|---|---|---|
| 1777509618 | 15.56° C | 83% | 1011.8 hPa | 0 mm | - | 1 W/m² | - |
| 1777509315 | 15.56° C | 83% | 1011.9 hPa | 0 mm | - | 1 W/m² | - |
| 1777509012 | 15.56° C | 82% | 1011.6 hPa | 0 mm | - | 2 W/m² | - |
| 1777508709 | 15.56° C | 81% | 1011.8 hPa | 0 mm | - | 2 W/m² | - |
| 1777508406 | 16.11° C | 80% | 1011.7 hPa | 0 mm | - | 5 W/m² | - |
| 1777508103 | 16.67° C | 78% | 1011.6 hPa | 0 mm | - | 10 W/m² | - |
| 1777507800 | 16.67° C | 78% | 1011.4 hPa | 0 mm | - | 12 W/m² | - |
| 1777507496 | 16.67° C | 78% | 1011.4 hPa | 0 mm | - | 19 W/m² | - |
| 1777507193 | 17.22° C | 76% | 1011.7 hPa | 0 mm | - | 31 W/m² | - |
| 1777506891 | 17.22° C | 76% | 1011.2 hPa | 0 mm | - | 34 W/m² | - |
| 1777506588 | 17.22° C | 75% | 1011.5 hPa | 0 mm | - | 47 W/m² | - |
| 1777506284 | 17.22° C | 75% | 1011.4 hPa | 0 mm | - | 62 W/m² | - |
| 1777505980 | 16.67° C | 74% | 1011.2 hPa | 0 mm | - | 73 W/m² | - |
| 1777505676 | 16.67° C | 76% | 1011.3 hPa | 0 mm | - | 61 W/m² | - |
| 1777505373 | 16.67° C | 76% | 1011.4 hPa | 0 mm | - | 36 W/m² | - |
| 1777505070 | 16.67° C | 76% | 1011.3 hPa | 0 mm | - | 64 W/m² | - |
| 1777504767 | 17.22° C | 74% | 1011.4 hPa | 0 mm | - | 88 W/m² | - |
| 1777504464 | 17.22° C | 74% | 1011.5 hPa | 0 mm | - | 101 W/m² | - |
| 1777504160 | 17.78° C | 73% | 1011.5 hPa | 0 mm | - | 56 W/m² | - |
| 1777503855 | 17.78° C | 72% | 1011.5 hPa | 0 mm | - | 142 W/m² | - |
| 1777503552 | 17.78° C | 74% | 1011.7 hPa | 0 mm | - | 156 W/m² | - |
| 1777503248 | 17.78° C | 76% | 1011.5 hPa | 0 mm | - | 193 W/m² | - |
| 1777502945 | 17.78° C | 75% | 1011.5 hPa | 0 mm | - | 98 W/m² | - |
| 1777502643 | 17.78° C | 78% | 1011.6 hPa | 0 mm | - | 210 W/m² | - |
| 1777502339 | 17.78° C | 78% | 1011.6 hPa | 0 mm | - | 223 W/m² | - |
* Rain latest hour (hover to see other rain measurements)
** Current wind speed in m/s (hover to see current wind gust speed)